RH
80 80 79 75 76 78 76 75 73 74 75 76 79 80 80 81 80 80 79 79 78 78 78 78 79 78 76 74 73 72 70 68 67 65 64 62 60 61 63 63 63 64 66 68 70 70 72 73 76 88 93 91 91 87 84 84 84 82 79 78 79 84 91 95 97 95 92 90 91 90 81 85 97 95 95 98 96 96 95 97 99 98 98 99 98
81 80 78 74 76 76 74 76 76 76 76 76 81 84 83 82 84 85 84 83 82 81 81 81 81 79 77 75 74 74 71 70 69 67 66 65 62 61 64 65 65 67 68 70 72 73 75 76 81 94 97 95 96 95 93 90 88 87 82 82 82 79 83 92 97 94 91 90 91 92 81 80 95 96 93 97 98 96 96 97 99 99 98 99 99
81 79 76 74 77 77 77 79 80 80 79 78 82 84 84 84 87 87 85 85 83 84 84 83 81 78 77 75 75 74 72 72 71 70 70 69 67 66 66 66 67 69 70 71 73 74 76 77 84 94 93 91 95 96 96 93 92 92 86 83 85 81 79 87 93 89 88 89 87 90 87 81 87 94 94 96 98 96 96 98 98 98 99 100 99
77 78 76 75 76 78 80 81 82 83 81 81 82 83 84 86 89 87 86 86 84 84 83 81 80 78 76 75 75 74 73 73 73 73 72 72 72 72 71 68 68 68 69 70 72 74 76 77 82 90 89 87 91 93 92 91 92 95 92 86 86 85 82 84 86 84 85 85 80 84 89 84 81 89 94 95 97 96 95 98 99 98 99 100 99
73 75 77 78 80 81 82 81 81 83 82 82 82 84 85 86 87 85 84 82 80 79 77 77 77 77 77 76 76 76 76 76 76 75 75 75 76 76 75 73 72 71 70 70 71 72 74 76 78 86 89 86 88 91 90 91 91 95 97 93 88 87 85 84 84 84 86 86 81 83 89 86 81 82 90 95 96 97 96 96 99 100 100 100 100
68 71 76 81 86 85 84 81 80 81 81 82 85 86 85 84 83 81 80 79 77 76 73 71 72 73 74 75 75 75 76 76 76 75 75 76 77 77 77 77 77 76 76 75 75 75 75 76 76 81 87 88 90 92 91 93 94 96 97 97 94 90 88 86 85 85 87 87 81 83 89 90 84 78 85 95 95 96 97 96 98 99 100 100 100
65 69 75 83 88 87 84 81 79 79 80 83 86 85 83 82 81 79 79 78 76 73 72 71 71 71 72 72 72 72 72 71 71 70 70 71 72 74 75 76 77 77 79 80 80 80 79 79 77 78 83 86 90 93 94 94 96 98 95 96 97 96 93 89 88 86 87 87 80 79 84 88 87 78 82 94 96 95 95 95 97 98 99 100 99
66 67 74 83 87 85 84 81 79 80 83 85 85 83 82 81 81 80 79 76 74 72 72 73 73 72 72 72 71 71 68 66 67 66 66 66 66 68 71 73 75 76 79 80 81 82 81 82 81 81 81 82 85 90 94 94 95 96 95 95 96 98 98 94 91 87 87 88 82 76 75 82 89 82 82 93 95 94 94 94 95 96 97 99 99
69 70 76 84 86 84 83 82 82 83 84 85 85 82 81 80 81 80 77 75 75 75 75 76 76 74 73 72 71 69 66 65 66 66 65 64 63 64 66 69 72 74 76 77 77 77 78 79 81 82 82 82 82 83 88 92 93 93 93 96 97 97 99 98 97 92 88 88 85 78 69 76 89 83 80 91 94 91 93 94 94 95 95 96 98
74 77 80 83 86 85 84 83 83 84 85 85 84 81 79 79 80 79 78 77 78 80 81 80 77 74 72 72 70 67 65 65 66 64 62 60 60 61 62 65 68 71 74 75 76 76 75 76 78 79 80 81 81 80 80 84 89 92 94 98 98 97 97 97 98 96 92 89 87 83 71 71 85 85 77 84 90 91 91 92 94 94 94 95 96
79 82 80 82 86 87 85 83 83 84 83 83 82 80 78 78 78 78 79 79 81 84 83 80 77 75 74 71 68 64 63 65 67 63 58 56 56 59 61 64 67 70 73 75 77 77 77 76 76 77 78 79 80 80 79 79 81 85 90 96 97 97 97 95 97 98 98 94 90 86 76 68 77 86 83 78 80 86 91 91 92 92 93 94 93
82 80 79 83 87 86 84 83 83 83 82 82 81 81 80 79 80 81 82 83 84 84 82 78 76 74 70 66 64 63 64 66 66 61 59 60 59 61 62 64 67 68 70 72 73 75 76 77 77 78 78 79 80 81 81 80 79 80 83 88 93 96 97 96 97 98 98 98 96 90 82 72 70 82 90 83 77 80 85 88 90 91 93 94 94
82 81 82 85 87 84 82 83 84 83 83 83 82 81 81 81 82 82 83 84 84 83 80 77 77 78 72 67 62 59 63 68 69 62 59 63 62 61 65 66 66 67 68 69 68 69 71 73 76 79 81 81 82 82 82 81 81 80 81 82 87 92 95 96 96 97 97 97 98 96 88 78 70 73 85 90 88 82 75 79 88 92 93 94 94
86 86 85 85 85 82 81 82 84 86 85 83 82 81 81 80 81 81 81 82 83 83 81 77 80 83 84 83 74 64 61 65 70 60 55 65 64 62 69 68 66 69 70 67 66 66 67 68 71 73 77 80 82 84 85 85 83 82 82 81 83 86 91 94 95 96 97 95 96 99 94 84 74 69 77 88 94 89 76 72 81 90 93 94 96
92 89 86 85 85 84 85 85 85 85 83 81 81 80 80 79 80 80 80 81 81 82 81 80 79 77 83 93 91 87 78 71 70 56 55 71 66 64 72 69 69 73 70 68 67 67 68 69 69 69 71 73 76 79 82 84 85 85 85 83 82 82 85 90 94 94 94 95 96 99 97 90 80 71 72 81 91 94 86 74 74 85 92 93 96
93 89 87 89 90 89 88 87 84 83 81 80 80 80 80 81 81 81 80 80 80 81 80 80 82 80 86 94 95 99 97 89 84 69 65 72 64 67 76 73 75 75 69 71 72 70 71 71 70 69 68 68 68 70 72 75 79 83 86 86 84 83 82 84 91 95 93 92 95 98 97 95 89 78 71 77 88 95 92 81 73 78 88 93 94
92 89 89 91 89 85 84 84 83 80 79 78 79 81 81 81 82 81 80 80 80 80 78 79 86 86 89 95 96 99 99 96 95 84 75 72 68 74 78 77 79 74 71 74 72 71 71 69 69 68 67 68 68 68 69 70 73 78 83 87 87 87 87 86 90 98 98 95 97 99 98 97 95 87 75 73 83 91 91 85 78 75 80 90 94
92 89 88 88 83 78 78 80 79 78 78 79 80 81 80 80 81 79 79 80 79 80 80 80 85 86 87 93 95 97 98 97 97 93 86 79 78 80 79 79 79 74 75 76 72 71 69 67 67 66 69 71 71 71 73 75 78 82 85 88 91 93 94 94 94 97 99 98 99 99 97 98 98 94 86 76 75 84 92 89 82 79 77 82 92
88 85 84 82 79 77 77 77 76 77 77 77 78 79 80 80 80 80 80 80 79 82 85 83 82 84 86 87 86 88 93 97 99 99 96 89 84 82 81 82 80 77 80 77 74 74 71 69 69 71 75 76 76 77 79 82 86 90 92 93 95 98 98 98 97 97 97 97 99 99 97 98 98 98 95 86 76 78 92 96 87 83 79 78 88
83 81 79 79 79 78 78 77 76 77 77 77 79 80 81 81 81 81 80 81 81 83 86 85 84 84 83 83 82 83 86 92 94 95 99 98 90 86 85 84 82 83 83 77 74 76 74 73 76 80 82 80 80 80 80 83 86 90 92 92 95 97 98 100 99 99 98 97 98 98 98 99 99 99 97 95 87 79 86 93 87 83 77 74 83
80 79 79 78 79 78 78 78 77 78 78 79 80 81 81 81 81 81 81 82 84 84 85 86 86 86 85 84 83 84 84 87 90 90 97 100 96 92 90 88 87 86 83 75 72 75 75 77 80 82 85 84 79 75 76 79 82 85 87 88 91 92 95 98 99 100 100 98 98 95 94 96 97 99 98 97 97 88 84 84 83 84 74 68 79
79 79 78 78 78 78 78 78 78 80 80 80 81 81 82 82 82 83 82 83 84 85 86 87 87 87 88 88 90 93 92 93 95 95 97 97 97 94 90 92 93 89 85 76 71 73 75 80 82 80 83 84 79 73 72 76 81 85 87 88 89 90 91 94 96 99 99 99 100 96 93 94 95 98 98 98 98 93 87 81 81 85 75 65 73
79 78 78 78 77 77 78 79 80 80 81 81 82 82 83 84 83 83 83 83 84 85 85 87 89 89 88 88 92 97 98 99 100 99 98 96 98 94 88 91 91 88 84 74 70 72 72 79 81 77 78 79 78 73 70 76 82 83 85 85 86 87 88 92 95 97 98 99 100 98 97 97 98 98 96 97 98 94 91 87 87 89 81 71 70
79 78 77 77 77 77 79 80 80 81 81 82 83 84 84 84 83 83 83 83 84 85 86 89 90 89 86 84 83 86 93 98 99 99 99 98 99 94 90 91 90 87 83 75 75 74 75 81 81 81 83 79 76 70 70 81 87 85 85 84 85 86 88 94 98 98 99 100 100 99 100 99 99 100 97 97 97 95 95 93 94 95 87 78 72
78 77 77 77 76 77 79 80 81 82 83 83 84 85 85 84 84 84 84 84 85 87 88 91 90 86 83 80 76 76 82 88 91 96 98 96 97 95 92 93 93 91 86 82 80 78 81 84 81 87 91 80 70 65 70 89 96 91 87 86 89 92 92 96 98 99 99 99 100 100 100 99 99 98 97 97 97 98 99 94 96 98 90 85 79
77 76 77 76 74 76 78 81 83 84 84 84 85 85 85 85 85 84 84 86 87 89 89 88 85 81 76 70 66 66 69 74 82 92 96 96 97 96 95 95 94 92 88 84 82 81 87 84 78 88 88 73 65 63 73 93 100 94 88 86 88 92 96 98 98 100 99 99 99 99 100 100 100 97 95 99 99 99 100 97 97 98 93 90 86
76 76 76 75 75 79 82 84 86 86 86 85 85 85 85 85 84 84 86 87 87 87 86 82 77 74 68 63 60 58 59 66 79 91 95 96 97 97 98 97 96 93 87 84 82 83 88 83 79 85 79 66 65 66 75 92 96 92 88 84 83 85 90 92 92 95 98 99 99 99 99 99 100 99 97 99 100 99 99 99 98 97 97 95 91
75 77 77 77 78 82 85 87 88 87 87 86 86 86 84 83 83 85 88 88 87 87 84 77 75 73 71 69 66 60 56 59 72 84 89 91 93 94 97 98 99 97 90 87 83 82 86 85 82 81 73 67 67 65 72 85 89 88 85 81 78 76 78 80 80 84 91 96 98 99 100 97 98 100 99 100 100 99 98 98 97 97 99 99 93
78 79 79 80 82 84 86 88 88 88 87 86 88 88 85 83 85 89 89 87 89 90 84 77 76 75 74 73 69 62 56 54 61 72 80 83 85 87 91 95 98 100 98 94 87 83 86 86 82 80 73 70 70 66 66 74 81 82 77 72 69 67 67 68 70 73 78 83 88 92 96 97 97 97 98 99 99 100 99 98 98 98 99 100 98
80 79 79 81 83 84 86 87 87 88 88 89 89 88 84 84 88 91 90 89 92 92 85 78 78 76 73 69 62 57 56 55 58 68 76 80 81 82 84 87 94 98 100 100 93 86 87 85 80 79 76 70 70 71 68 70 77 78 72 66 63 63 63 62 62 64 65 68 72 77 83 91 95 95 96 97 98 99 100 100 99 98 97 98 100
80 79 79 82 84 85 86 86 86 88 90 90 89 85 83 85 88 91 92 93 93 90 84 80 78 72 66 61 59 60 63 64 67 73 79 82 83 83 82 84 92 97 99 101 98 91 90 88 80 77 75 71 71 74 73 73 78 79 75 68 64 64 65 62 59 58 57 58 61 64 69 76 82 87 90 93 95 96 96 99 100 99 97 95 97
79 79 80 83 85 86 86 86 87 89 88 87 85 83 84 85 85 88 93 94 93 90 85 79 72 63 59 62 67 72 74 74 76 78 81 84 86 88 88 88 92 97 99 101 99 94 91 87 81 77 75 73 72 74 76 77 78 81 79 72 69 70 69 67 64 61 59 57 57 58 61 64 69 75 79 83 89 93 95 96 98 100 100 97 97
79 79 81 84 85 86 86 87 88 86 83 84 84 84 84 82 81 85 89 91 91 90 82 71 63 60 62 68 73 75 76 77 78 79 80 83 87 90 92 88 87 91 96 99 100 96 88 82 80 78 76 75 73 74 79 81 80 81 79 75 76 78 77 75 72 68 67 63 60 59 60 61 62 66 69 72 77 85 94 96 95 98 100 99 99
79 79 81 83 84 85 87 87 85 82 82 85 85 83 81 78 78 82 84 85 84 80 71 63 62 64 66 70 73 74 75 76 76 78 79 79 82 86 89 89 88 87 86 90 97 96 87 79 78 77 76 79 80 79 83 86 83 82 81 79 82 84 83 82 79 75 74 71 67 65 67 68 66 66 68 69 72 76 86 94 97 97 98 100 100
80 80 80 81 82 85 88 87 83 82 85 84 80 78 77 76 76 78 79 79 76 69 64 63 64 66 67 70 72 72 73 73 74 75 75 75 75 77 79 80 82 82 79 82 89 89 84 80 78 79 80 84 86 85 86 87 85 85 86 85 86 88 87 86 83 81 79 77 73 71 74 76 75 75 73 74 77 79 82 89 96 98 98 99 99
80 79 79 78 80 85 89 87 83 84 85 80 75 75 74 73 73 75 75 72 66 61 61 64 65 66 68 70 71 71 71 71 72 71 71 72 72 74 77 79 82 84 83 85 87 86 86 85 83 84 86 87 88 86 86 86 86 88 89 89 89 90 89 87 86 85 81 78 76 75 75 75 75 76 75 74 76 78 83 88 94 98 99 99 100
78 77 76 77 82 88 89 86 84 85 81 76 74 73 71 69 69 69 67 62 58 59 61 63 64 66 67 68 68 69 69 68 68 68 66 66 66 67 71 77 81 82 82 85 88 88 90 90 88 87 87 87 87 86 85 87 90 91 90 90 91 91 90 89 88 87 83 79 78 79 79 75 73 73 73 74 73 74 80 88 95 98 99 100 100
75 74 76 80 85 88 88 85 83 82 78 75 75 70 64 61 61 59 57 56 56 58 59 61 63 64 65 66 66 66 66 64 64 63 61 61 62 63 65 69 72 75 77 81 85 87 90 91 90 88 86 86 86 86 87 90 92 92 90 91 90 89 90 90 87 86 84 82 82 85 85 80 76 74 74 75 75 75 77 85 95 100 99 100 100
72 76 80 85 89 89 87 84 81 79 76 76 72 62 54 53 54 53 52 52 52 52 54 56 59 61 62 63 63 63 63 63 62 61 61 62 63 65 67 69 70 73 76 79 82 86 90 91 89 87 85 85 85 86 88 90 92 92 92 93 92 90 90 90 88 86 84 84 87 88 86 82 78 76 78 78 78 80 80 82 91 98 100 100 100
75 80 84 87 89 88 85 81 79 77 76 71 61 52 50 50 50 48 47 47 46 46 47 49 52 56 57 58 60 60 61 61 62 62 63 65 66 67 69 71 73 75 77 80 82 85 88 89 88 86 86 85 86 87 89 91 92 94 95 96 96 94 93 92 92 89 86 88 91 88 82 82 80 76 78 81 81 85 88 86 87 92 98 100 99
78 81 84 86 86 84 81 78 78 76 69 58 50 47 49 48 46 45 45 44 44 43 43 44 46 49 52 54 56 57 58 60 61 62 64 66 69 70 71 73 75 76 78 80 83 85 86 86 86 87 87 87 89 91 93 94 95 97 98 98 98 98 97 95 93 91 90 92 94 89 83 86 89 82 80 84 87 92 95 93 91 90 93 99 100
78 80 82 85 83 81 78 77 77 70 56 46 46 48 48 46 45 44 44 43 43 43 42 42 43 45 48 50 51 52 54 56 58 60 61 63 65 68 71 73 76 79 80 81 83 85 87 86 86 87 88 90 93 95 96 97 98 99 99 100 99 98 97 97 93 90 90 91 94 93 86 88 94 90 85 89 95 99 99 98 98 97 95 98 100
77 79 81 83 82 79 78 76 73 62 48 43 47 49 46 45 44 43 43 43 42 42 42 41 42 44 46 48 48 48 48 50 52 53 53 55 56 58 62 65 71 76 80 83 84 85 87 89 89 89 90 92 95 97 99 99 99 100 100 99 100 99 98 98 94 91 88 89 95 97 90 90 96 93 89 95 99 99 100 99 99 100 99 99 100
76 78 80 81 81 79 75 71 68 59 47 44 46 46 44 44 43 42 42 42 42 42 41 41 41 42 45 46 47 48 47 47 48 47 48 49 49 52 56 59 64 67 71 76 80 82 85 89 91 92 93 95 96 98 100 100 99 100 100 100 100 100 99 98 96 94 90 89 95 99 96 95 95 88 88 98 101 98 100 100 99 100 100 99 100
75 76 80 80 79 77 70 65 66 62 52 45 44 44 43 43 42 42 41 41 41 42 41 40 40 41 43 45 47 48 49 48 46 44 45 46 47 51 55 57 59 61 63 66 70 74 78 83 88 91 92 95 98 99 99 99 100 99 100 100 100 100 100 99 97 95 92 90 95 100 98 95 92 90 93 99 99 96 97 99 99 100 100 100 100
75 74 78 80 78 75 67 63 66 66 60 55 50 47 44 42 41 41 41 42 43 42 41 40 40 40 41 43 46 48 48 47 44 43 44 45 47 51 54 54 56 59 61 64 66 69 72 77 83 87 90 94 99 100 98 98 100 100 99 100 99 99 100 97 94 91 88 90 97 100 98 93 92 96 100 100 96 93 93 96 97 97 98 99 100
74 73 75 79 79 74 66 62 64 65 64 61 57 52 46 41 41 41 41 42 43 42 41 38 38 39 39 40 42 44 45 43 41 42 43 44 47 51 53 54 55 56 59 61 64 67 70 74 79 85 90 94 97 99 99 98 99 99 99 100 99 100 99 95 91 88 85 89 97 101 99 95 94 97 100 100 96 91 90 94 95 94 95 95 96
73 71 72 76 78 75 67 62 63 66 66 62 60 56 46 39 40 41 41 41 40 40 40 38 38 38 38 39 39 40 41 40 39 41 42 44 47 50 51 52 52 53 54 55 58 61 64 70 77 84 88 92 95 97 96 97 98 98 99 100 99 100 99 95 92 91 89 92 97 100 100 97 96 99 100 99 96 92 92 95 95 96 97 96 95
72 69 69 72 74 75 69 63 64 68 68 64 60 52 41 38 41 43 41 40 39 39 39 38 37 37 37 39 39 38 39 38 38 39 41 42 44 45 47 48 48 49 50 50 52 54 57 65 75 82 87 90 93 94 93 94 97 98 99 100 99 100 100 97 97 95 93 95 99 100 100 99 98 99 100 98 96 95 97 98 98 99 100 98 99
69 67 69 71 73 75 70 65 65 65 64 66 62 50 39 39 43 43 41 40 38 38 38 37 37 37 37 38 38 38 39 38 38 38 39 40 42 43 44 45 47 49 49 49 50 52 56 64 71 77 82 86 90 92 92 93 96 98 100 100 99 100 100 99 100 97 92 94 99 100 99 99 99 99 99 98 94 93 98 100 99 100 100 99 100
66 65 68 70 70 70 67 62 59 56 58 63 62 50 39 39 43 43 41 39 38 37 37 36 36 37 37 37 37 38 39 39 38 37 37 38 40 41 43 45 47 49 49 49 50 52 57 65 70 73 77 81 85 88 90 92 95 97 99 100 100 100 100 99 100 98 93 95 99 100 99 99 100 99 99 99 95 91 95 100 100 99 100 100 99
Wind_Speed
3 3 3 3 2 1 1 1 2 3 3 2 2 3 2 2 3 3 3 4 5 5 6 7 8 9 10 10 10 9 8 8 9 9 8 8 9 10 11 12 14 16 15 14 14 14 14 15 16 15 12 12 13 13 12 10 9 9 7 7 7 7 7 7 7 7 8 8 7 7 6 5 5 6 7 6 5 5 4 4 3 4 3 3 4
4 5 5 5 4 3 3 3 4 5 5 4 4 3 3 3 3 4 4 5 6 6 7 7 8 9 10 9 8 8 7 8 9 8 8 8 8 8 10 12 14 15 16 16 16 15 15 15 16 15 13 13 13 12 13 12 11 11 9 9 9 8 8 7 8 8 8 8 7 9 8 7 7 7 8 7 6 5 5 5 4 5 4 4 5
6 6 6 7 6 5 5 6 7 7 6 6 5 5 4 3 4 5 6 6 7 7 8 9 9 9 8 8 8 8 8 8 8 8 9 9 9 10 10 11 13 15 16 17 17 17 16 16 16 16 14 14 15 12 14 14 12 14 13 11 10 9 8 7 8 10 9 8 9 10 9 9 9 8 8 8 7 6 6 6 5 5 4 5 6
6 5 6 7 8 7 7 8 9 9 8 7 7 6 5 4 5 5 5 6 6 7 8 8 8 7 7 7 8 8 8 8 9 10 11 12 11 11 12 12 13 15 16 17 17 18 18 18 17 17 16 16 16 14 16 16 13 15 16 13 11 10 9 8 8 10 10 10 10 10 9 10 10 10 10 10 8 7 8 7 7 7 6 6 6
7 6 6 7 9 9 9 10 10 10 9 9 8 7 5 4 4 3 3 4 6 7 7 7 7 6 7 8 8 9 9 9 10 11 12 13 13 12 12 13 14 15 16 17 17 18 19 19 19 18 19 18 17 16 17 17 14 15 16 15 14 13 11 10 9 10 10 10 10 10 9 9 11 12 12 11 10 9 9 8 8 8 8 7 6
9 9 7 7 8 8 9 9 9 10 10 10 8 6 4 2 2 2 3 5 7 7 8 9 8 8 9 9 10 10 10 11 11 12 13 13 14 14 14 14 14 15 16 16 17 18 19 20 20 19 20 20 18 18 18 18 16 16 16 16 16 15 14 12 11 10 10 10 9 10 10 9 10 12 14 12 10 10 9 9 9 10 10 9 8
11 10 8 7 6 6 7 8 9 10 10 9 7 5 3 1 2 3 4 6 7 8 9 10 10 10 10 10 11 11 11 11 12 12 12 13 13 14 15 15 15 15 15 15 16 17 17 17 18 18 19 19 19 19 19 18 17 17 18 17 17 17 16 14 13 12 11 10 8 9 10 10 9 11 15 13 11 11 10 10 10 10 10 10 10
11 11 9 8 7 6 5 6 8 8 8 7 5 4 3 2 3 3 5 7 8 9 9 9 10 10 11 12 12 12 12 12 12 12 12 12 13 13 13 14 15 15 15 15 15 15 15 15 16 16 17 18 19 20 20 19 19 19 19 18 18 18 17 17 16 14 12 10 9 9 10 11 10 11 16 15 11 12 11 11 11 11 11 11 11
10 10 9 8 8 6 5 5 5 6 6 6 4 3 3 3 2 3 6 7 8 9 9 9 10 10 11 12 12 13 13 12 12 11 11 11 11 10 11 12 13 14 15 15 16 16 16 15 15 15 16 17 18 19 19 19 21 21 20 19 18 18 18 17 17 16 14 12 10 10 10 11 10 10 16 16 12 12 12 12 12 12 12 12 11
10 9 9 9 8 6 5 5 5 6 6 4 3 2 2 3 3 4 5 6 7 8 9 10 10 11 12 12 13 13 12 11 9 8 10 9 9 8 8 9 11 13 14 16 17 17 17 17 17 17 16 17 17 17 18 18 20 22 21 20 19 20 19 18 18 18 17 16 13 11 10 12 13 11 14 16 14 13 13 13 13 12 13 12 12
10 9 9 9 8 6 5 6 7 6 5 3 2 1 2 2 3 3 4 5 5 6 8 9 10 11 11 12 13 12 11 8 5 9 12 11 9 8 8 9 10 12 14 16 17 18 18 19 19 19 18 18 17 17 17 18 19 21 21 21 21 21 21 20 18 18 18 17 16 13 11 13 15 13 14 16 16 15 15 14 14 14 14 13 12
11 10 9 7 6 5 6 7 7 6 5 3 2 1 1 2 3 3 4 4 3 6 8 9 10 10 12 14 12 10 8 3 2 10 15 10 10 10 8 9 10 12 14 15 16 16 18 19 20 20 20 20 19 19 18 18 18 19 21 21 21 21 22 21 19 19 19 18 17 16 14 14 16 17 16 16 17 17 17 16 16 15 16 14 14
11 10 8 6 4 5 7 8 6 4 4 3 2 2 1 1 2 2 3 3 4 7 9 9 9 11 15 14 14 10 5 3 2 11 16 8 10 14 9 10 11 13 15 15 16 17 17 19 20 21 22 22 22 21 20 20 19 19 20 21 21 22 23 23 21 20 21 20 19 19 17 16 17 19 19 18 17 17 18 19 18 17 17 16 15
8 6 5 4 3 5 6 7 6 4 3 3 3 2 1 1 0 1 2 4 6 8 11 10 9 10 9 9 13 10 7 6 4 10 16 6 10 15 9 11 13 12 14 15 17 18 19 20 20 21 21 23 24 24 24 23 22 21 20 20 21 22 23 24 24 23 22 22 22 22 20 18 18 20 21 20 19 18 18 20 20 19 18 18 17
4 2 2 4 4 5 6 7 8 6 5 4 4 3 2 2 2 1 2 4 6 8 11 11 10 10 5 3 6 5 7 7 5 17 17 6 11 14 8 12 13 11 14 15 17 18 19 20 20 20 21 21 23 24 25 25 24 24 23 22 21 22 23 24 26 26 25 23 23 24 24 21 20 21 23 22 21 20 19 20 22 21 20 19 19
2 3 5 7 7 7 7 8 8 6 5 5 4 5 5 4 3 2 3 5 6 7 9 11 12 10 5 1 1 2 3 4 11 20 11 6 14 11 8 13 12 14 17 16 16 17 18 19 19 20 20 21 23 23 24 24 24 25 25 24 24 23 23 24 25 26 26 26 25 25 27 25 24 23 23 24 23 22 21 20 22 24 23 21 20
4 6 7 8 8 8 8 8 8 6 6 6 6 7 6 5 4 4 4 5 5 6 6 8 11 10 7 2 1 2 2 4 11 10 6 12 13 7 10 12 13 19 18 16 18 19 19 20 20 20 21 22 23 23 23 23 23 24 25 25 26 26 25 24 25 24 25 28 27 26 28 27 27 25 24 25 25 25 23 22 22 25 26 24 22
7 7 7 7 9 9 8 8 8 7 7 6 7 6 5 5 4 4 5 5 4 5 6 5 6 8 9 7 3 2 3 5 5 3 10 12 4 6 12 11 18 22 17 18 22 20 20 19 20 20 21 22 22 22 23 22 22 23 24 25 26 28 28 25 24 23 24 28 28 28 29 27 27 28 27 27 27 27 25 23 23 24 27 27 24
9 9 9 9 10 9 7 7 7 7 6 6 5 5 5 5 4 4 5 5 4 6 8 6 4 6 8 6 5 5 6 5 3 2 8 6 5 12 13 14 21 19 15 21 22 20 19 17 19 20 20 20 20 20 21 21 22 22 23 24 25 27 28 27 25 23 24 26 27 29 29 26 28 31 30 29 29 29 26 23 24 24 27 30 27
11 12 11 10 9 7 6 5 5 5 4 4 5 5 5 5 5 5 5 6 6 7 9 9 7 8 7 6 6 6 7 7 7 6 4 5 9 12 13 19 20 14 15 21 21 20 19 18 20 20 19 19 20 20 21 20 21 22 23 23 24 25 26 27 27 26 25 26 26 28 27 26 30 32 32 31 29 30 28 26 26 25 26 31 30
12 12 10 8 7 6 5 4 3 3 3 3 4 4 3 4 4 5 6 8 8 8 9 11 10 10 9 8 8 8 8 8 11 12 5 5 7 7 12 19 15 12 16 20 21 20 18 18 19 19 19 19 21 22 23 22 22 23 23 23 23 24 24 24 25 26 27 27 26 26 25 26 29 31 33 33 30 29 30 30 29 27 26 31 33
12 10 8 7 5 3 3 2 2 2 2 3 3 3 3 4 5 6 7 8 9 9 10 11 11 11 11 11 12 11 9 7 9 12 6 4 6 6 10 13 12 14 16 21 23 19 16 16 16 18 21 21 23 24 24 24 23 23 23 22 21 21 21 22 22 23 24 25 25 26 25 23 25 29 31 32 31 29 29 31 32 30 27 30 34
11 9 7 5 3 2 1 1 1 1 2 2 3 3 4 5 6 6 7 8 9 9 10 11 11 12 13 14 15 13 10 8 9 11 8 5 6 7 9 13 14 15 18 23 22 16 15 15 15 19 22 22 25 26 26 25 23 23 22 21 20 20 20 20 22 22 22 23 23 24 25 23 23 26 27 27 29 31 30 31 32 32 29 30 34
10 8 6 4 2 1 1 1 1 1 2 3 4 5 5 6 7 7 8 10 10 10 11 12 12 13 15 15 15 14 13 11 10 11 10 9 8 6 9 13 12 13 19 22 19 15 14 13 16 18 19 21 24 26 27 25 23 23 23 22 21 19 19 19 21 22 22 22 21 21 23 23 22 24 26 25 27 31 32 32 32 32 31 31 34
10 8 6 4 2 1 1 2 3 3 4 6 6 7 7 8 9 10 11 11 11 12 13 14 14 15 15 14 14 14 14 12 11 10 11 11 9 7 9 12 10 12 17 18 17 15 11 13 18 17 17 21 25 28 27 24 23 23 23 23 21 19 18 18 19 20 20 20 20 20 21 23 22 22 24 25 25 28 33 35 34 34 34 33 34
10 8 6 5 4 4 4 5 7 8 8 9 9 9 9 10 11 11 11 12 12 14 15 15 15 14 14 14 14 15 15 13 11 10 11 11 10 9 10 10 9 11 14 15 17 13 10 17 20 15 19 26 29 30 26 24 24 24 24 24 22 21 19 19 20 20 20 19 19 19 20 21 22 22 24 25 26 27 31 34 35 36 37 36 35
9 9 8 7 8 9 10 11 11 11 11 11 11 10 10 11 11 12 13 13 13 15 16 16 16 15 15 15 16 17 16 15 13 11 11 10 10 11 10 8 6 7 8 11 14 12 13 21 21 16 23 31 32 31 25 23 25 26 27 26 25 24 22 22 22 21 21 20 19 18 18 19 20 22 23 25 26 27 30 33 34 37 40 39 37
11 11 11 10 11 12 12 13 13 13 12 12 12 12 12 13 14 16 17 16 16 18 18 18 17 16 15 16 16 17 16 15 13 11 10 9 9 11 11 9 7 6 5 6 9 10 14 20 19 18 27 32 32 31 25 23 26 28 30 30 29 28 25 24 23 21 20 20 19 18 17 18 18 20 21 22 24 26 30 33 34 36 40 41 39
14 13 12 12 12 12 13 14 13 13 13 13 13 14 15 17 18 19 19 18 18 18 17 17 17 15 15 16 16 16 15 13 13 11 11 10 9 10 11 11 9 7 5 6 7 9 13 19 18 21 30 32 31 32 28 26 28 29 30 31 31 31 29 26 24 23 21 19 19 17 16 17 18 19 20 21 23 25 28 33 35 37 37 38 41
15 14 13 13 13 13 13 13 13 12 13 14 15 15 16 18 18 19 18 18 19 18 16 16 16 14 14 15 15 15 14 13 13 12 12 11 11 11 11 12 11 8 6 7 7 9 15 21 21 23 30 33 31 31 30 30 29 29 31 32 33 32 31 28 25 24 22 21 20 19 17 17 17 18 19 20 22 24 27 31 35 37 37 37 39
15 14 13 14 14 14 13 13 13 14 15 16 16 16 17 17 18 18 18 18 19 18 16 16 15 15 15 16 16 16 15 14 13 13 13 13 13 14 13 14 14 12 11 9 6 10 17 21 24 27 29 32 31 29 30 31 30 30 33 34 35 34 32 30 27 24 23 22 21 20 19 18 18 18 18 18 19 21 24 27 31 36 39 39 38
15 14 14 15 15 14 14 14 15 16 16 16 15 15 16 17 17 18 18 18 19 18 16 15 15 16 17 17 18 18 17 16 16 16 15 16 16 16 16 16 18 17 16 12 7 11 18 20 23 29 30 30 32 30 29 31 31 30 33 36 36 34 33 32 30 27 26 24 22 21 20 19 19 19 18 18 18 19 20 23 25 31 37 40 38
14 14 15 15 14 14 14 15 15 15 15 16 15 15 16 17 17 17 17 18 18 17 15 15 16 17 18 19 19 19 18 18 18 18 18 18 18 18 17 17 19 20 19 15 10 12 20 22 23 26 28 30 31 30 30 31 32 32 35 37 35 33 33 33 32 31 30 27 24 21 20 20 20 20 20 19 18 19 20 20 21 24 31 38 40
14 14 14 14 13 13 14 15 15 16 17 17 16 16 17 17 17 17 16 16 16 16 15 17 18 18 19 19 19 18 18 18 19 19 20 20 21 20 19 18 18 18 18 17 14 13 18 24 26 27 29 29 29 30 30 29 31 34 37 38 35 33 33 32 32 33 33 31 28 23 20 19 18 19 20 19 18 19 20 21 20 21 25 33 40
14 13 12 11 11 13 15 16 17 17 17 17 17 17 17 17 17 17 15 15 15 16 17 19 19 20 20 21 20 19 18 18 19 20 20 20 21 21 20 20 19 19 19 18 16 14 17 23 27 28 30 30 29 30 30 28 29 32 35 35 33 32 31 31 33 34 34 32 30 24 20 19 17 16 16 17 18 18 20 21 22 21 22 27 35
13 12 10 9 11 15 17 18 18 17 18 18 17 17 15 15 16 16 16 16 17 18 20 21 21 21 22 22 21 20 19 20 20 20 21 21 21 21 22 22 22 22 22 20 18 18 18 21 25 27 28 28 29 28 28 29 30 31 31 30 30 31 30 31 32 34 35 33 29 25 22 21 21 20 18 18 18 19 20 21 22 23 23 24 30
13 11 11 12 15 18 19 19 18 19 19 18 17 16 14 14 15 17 18 19 20 22 22 22 22 22 21 21 20 20 21 22 22 22 23 24 25 25 25 25 24 24 23 22 21 20 19 20 23 27 27 26 27 26 26 28 31 31 29 28 28 29 30 32 33 32 34 34 30 27 27 27 26 25 22 20 19 19 20 22 22 23 24 25 26
12 12 14 17 19 21 21 20 20 20 19 17 16 15 14 16 19 21 23 24 24 24 23 22 22 21 20 20 20 21 22 23 23 24 25 26 27 27 27 26 25 25 25 24 23 22 21 20 21 23 25 25 25 25 25 26 27 28 29 31 33 31 29 32 36 35 34 33 30 28 29 31 31 27 24 21 19 19 19 21 22 23 24 25 25
15 16 19 21 21 21 21 21 21 20 18 17 15 15 18 21 24 26 26 26 25 24 23 22 21 20 20 20 20 20 21 21 22 23 23 24 25 25 25 25 25 25 24 24 24 24 22 21 20 21 22 23 23 23 25 26 23 22 25 29 34 36 33 32 35 37 36 31 29 30 32 33 31 28 25 22 19 18 18 18 21 22 23 25 26
18 20 21 22 22 22 22 22 21 19 17 16 15 18 22 25 27 27 27 26 25 24 23 21 20 19 19 19 19 18 18 19 19 20 21 21 21 22 22 22 23 23 23 23 24 25 24 21 21 22 22 22 23 24 25 25 23 24 25 25 28 33 35 35 33 34 33 30 29 33 35 33 30 29 26 23 20 19 18 17 17 21 22 24 25
20 21 22 22 23 23 23 22 20 18 17 17 18 21 25 27 27 27 26 25 25 23 23 22 20 19 18 17 17 16 16 16 16 17 17 17 18 18 18 19 20 21 22 23 23 23 23 21 21 23 22 21 23 25 25 24 24 26 28 27 26 28 31 34 34 29 25 26 30 35 36 31 29 29 28 27 25 22 20 18 15 17 19 21 23
21 21 22 23 24 24 24 21 19 19 19 20 21 24 26 26 26 26 25 24 23 23 23 22 21 19 17 17 17 17 16 16 16 16 16 15 15 14 14 15 16 17 20 22 23 22 21 20 20 22 21 21 23 25 24 24 26 27 28 28 27 28 28 28 30 28 23 25 31 34 35 30 26 28 30 28 27 26 24 20 17 16 17 18 18
20 21 22 24 24 24 22 20 20 22 22 22 23 24 25 25 24 24 24 23 22 22 22 22 21 19 17 16 16 17 17 17 16 16 16 15 14 14 14 14 14 15 18 20 22 23 20 19 20 20 20 21 24 24 24 26 28 27 27 26 25 27 26 21 22 26 28 31 31 31 34 31 25 26 29 26 26 26 23 19 18 18 18 17 16
20 21 22 24 25 23 21 21 22 24 24 23 23 24 23 23 23 22 22 21 21 21 20 20 19 18 17 15 15 15 16 16 16 16 15 15 15 15 16 17 17 17 18 18 20 22 21 20 20 21 21 22 24 24 25 28 30 28 26 26 25 25 25 21 20 24 31 35 30 27 30 28 24 27 28 24 23 22 18 16 17 17 18 18 17
20 21 22 24 24 22 21 23 24 25 24 23 22 22 22 21 21 21 21 21 20 19 18 17 17 17 17 16 15 14 13 14 15 15 15 15 15 16 17 18 19 20 20 21 21 21 22 21 21 22 23 23 24 25 26 27 29 29 26 26 26 25 24 24 24 27 32 31 27 24 25 25 26 27 26 23 21 19 16 16 16 15 16 18 18
21 21 22 23 24 22 22 23 24 23 22 21 20 20 19 19 19 19 19 19 19 18 16 16 15 16 17 17 16 15 13 14 16 16 15 14 14 16 18 20 21 21 21 22 23 23 24 23 23 23 23 23 23 24 26 27 26 27 27 26 27 25 25 26 25 27 27 24 25 24 20 24 30 26 22 22 21 18 17 16 16 15 15 16 17
22 22 22 23 23 23 22 22 23 22 20 19 18 17 17 17 17 17 17 17 17 16 15 14 14 15 15 16 16 15 15 16 17 16 15 15 14 15 18 20 21 21 21 22 23 24 25 25 24 23 22 23 22 22 25 26 26 27 25 23 23 23 24 25 24 25 25 23 26 24 18 24 31 25 22 23 20 18 20 19 16 15 13 13 14
22 22 22 22 23 23 22 21 21 20 18 17 16 15 15 16 16 15 15 15 15 15 15 14 13 14 14 14 14 14 15 15 16 16 15 15 15 15 17 18 20 21 23 23 23 23 24 25 25 23 21 22 21 21 23 24 26 28 25 21 21 22 23 21 20 26 27 24 29 29 22 25 28 24 24 22 16 20 25 23 22 19 14 12 11
23 22 22 22 21 22 22 20 19 19 18 16 15 15 15 14 14 13 13 13 14 14 14 13 13 13 13 13 13 13 13 15 16 16 16 16 17 17 18 19 21 23 25 26 25 25 25 25 25 24 23 22 21 21 23 24 26 28 27 25 25 25 22 17 17 24 25 23 33 34 24 23 25 25 26 19 12 23 29 27 28 25 19 15 12
24 22 22 22 22 22 21 19 17 17 17 16 15 15 14 13 12 12 11 11 12 13 13 13 12 12 12 12 12 12 12 14 15 15 16 17 18 19 20 21 22 24 27 28 28 28 29 28 28 27 25 24 24 23 24 25 26 28 28 27 26 25 22 18 20 25 21 22 37 36 23 22 25 26 26 16 7 19 29 29 31 32 27 23 18
24 24 23 23 23 22 20 19 18 17 18 17 16 15 14 12 10 10 10 10 11 12 12 12 11 11 11 11 11 12 11 12 13 14 16 17 18 20 20 21 23 24 25 27 28 29 31 31 31 31 29 28 27 26 26 26 27 28 28 28 27 27 24 22 25 23 14 19 38 36 22 22 26 26 26 16 4 11 25 29 31 34 32 31 27
Wind_Direction
218 242 251 268 300 261 223 257 242 252 273 287 319 329 320 328 336 335 337 340 340 332 323 321 324 324 321 314 312 313 309 305 306 310 315 314 306 293 281 269 260 258 264 272 279 283 281 277 271 266 267 270 272 275 277 281 279 276 281 291 292 279 264 258 264 271 281 286 282 289 277 222 225 239 238 238 232 239 238 227 216 200 193 182 165
246 259 265 279 280 263 258 272 271 270 279 287 296 295 298 320 330 329 331 336 335 331 326 323 325 325 320 313 314 317 313 311 311 310 312 313 312 304 288 274 264 262 266 272 277 278 277 278 272 262 265 269 267 268 269 271 268 264 272 281 289 288 271 257 253 257 270 277 268 276 272 228 220 232 241 243 232 233 230 222 217 208 204 192 179
244 255 266 275 273 274 279 284 284 279 278 274 270 276 287 311 318 317 318 325 331 331 330 326 326 326 322 318 319 319 316 319 318 316 317 314 311 309 301 287 274 270 272 275 277 278 278 279 275 269 273 272 266 267 262 260 255 256 265 271 281 288 279 263 253 257 264 268 266 265 262 240 224 225 239 240 231 232 227 221 216 210 206 198 190
228 251 270 274 270 275 281 285 283 275 271 267 263 269 279 302 307 307 311 322 332 331 330 328 328 328 326 323 321 319 315 316 317 317 318 316 313 310 306 297 286 281 280 281 281 282 282 283 281 275 279 283 276 273 267 261 252 252 259 264 273 281 280 274 262 264 267 271 272 261 256 248 230 223 233 235 229 229 226 224 219 211 207 201 196
225 244 263 272 268 269 275 277 274 268 266 264 261 263 275 295 296 300 321 333 336 334 332 331 330 325 322 322 319 316 313 313 314 315 316 316 317 315 311 304 296 292 289 288 287 288 288 288 288 277 276 286 283 278 275 270 259 248 251 255 265 274 274 275 272 269 271 276 273 256 252 252 236 226 230 234 229 228 226 225 222 215 210 203 199
237 238 248 265 261 264 272 271 268 264 265 263 259 266 277 283 289 323 348 345 341 341 342 341 335 326 324 323 320 318 316 316 315 315 315 315 314 313 312 309 305 302 298 296 294 294 294 293 294 286 280 283 281 278 278 275 263 251 254 255 257 266 269 268 273 272 272 280 271 251 249 251 242 227 225 232 229 229 228 226 226 219 215 210 205
237 233 243 255 247 255 269 269 267 265 266 260 257 268 259 246 295 329 349 345 344 348 350 347 338 333 332 330 330 331 328 324 322 320 320 318 314 311 310 309 310 310 307 304 302 300 300 298 298 295 289 286 281 276 275 273 263 256 263 261 254 258 260 261 269 271 270 280 273 252 247 246 247 227 218 226 230 229 231 228 227 222 218 215 209
233 231 242 247 238 244 258 266 263 256 254 246 244 241 227 255 286 325 346 347 351 353 353 346 335 333 333 333 335 335 333 330 327 324 322 318 313 311 309 309 310 313 313 312 311 310 309 307 304 300 296 292 287 281 275 271 266 264 266 259 252 253 252 254 262 268 266 274 275 261 250 239 245 230 214 221 228 229 234 232 230 227 221 219 215
233 233 243 245 237 236 251 262 245 228 224 222 224 218 236 267 280 328 346 352 354 352 346 336 328 326 328 333 334 333 334 335 333 332 332 327 322 318 314 314 314 315 317 318 318 318 317 316 313 307 302 297 294 289 282 273 268 271 270 259 253 252 247 247 255 262 263 266 271 266 255 233 234 234 217 219 226 229 235 234 232 230 225 220 217
232 236 245 239 229 229 252 246 213 207 208 208 217 226 281 288 297 331 348 348 348 349 340 331 328 328 329 331 331 332 336 337 344 358 355 348 343 337 332 328 323 321 320 321 321 320 319 317 316 312 307 304 300 297 290 280 272 272 271 261 255 253 249 247 250 255 256 259 265 265 257 233 226 230 221 221 228 229 232 235 234 231 229 223 218
232 241 244 233 227 232 245 226 204 203 208 207 216 278 330 321 323 336 338 335 347 355 341 334 333 331 328 328 330 335 337 338 7 20 6 357 353 347 344 340 334 334 331 328 324 320 319 316 315 313 310 309 306 302 296 289 282 276 273 266 260 257 253 250 248 248 250 250 254 259 255 237 227 225 222 224 228 230 230 231 233 231 228 226 224
236 241 236 227 230 232 222 214 209 210 217 214 216 259 304 340 350 347 334 340 13 7 349 339 335 331 332 335 339 339 339 348 63 13 5 10 15 3 355 355 353 353 350 344 339 331 326 321 317 315 312 311 309 306 302 294 289 282 278 273 266 261 256 252 248 246 248 244 243 249 252 242 232 226 224 225 225 228 231 229 231 231 225 224 225
237 235 230 224 223 221 215 212 211 210 216 214 224 249 255 358 6 4 360 31 44 16 359 349 349 347 340 339 347 351 357 339 302 358 4 17 21 10 8 11 7 4 359 355 353 347 342 335 327 321 315 313 311 309 306 301 295 288 282 278 271 264 258 254 251 248 247 244 238 239 246 246 236 228 225 226 224 224 228 229 229 231 227 222 223
228 228 227 218 202 206 212 210 201 187 186 190 196 207 163 129 75 69 62 57 45 24 9 6 9 355 341 338 348 355 358 340 286 342 354 351 1 5 8 7 5 4 359 354 353 349 345 343 337 332 325 319 316 312 308 303 300 296 289 283 278 271 263 256 253 250 246 245 240 235 240 244 238 231 226 225 224 222 222 226 228 229 229 223 221
216 218 182 157 151 169 181 182 179 173 172 174 166 147 125 125 132 119 74 53 44 34 23 25 22 5 358 354 357 352 340 352 320 327 336 319 340 354 356 357 0 357 353 352 351 347 344 343 341 339 336 330 326 320 314 308 303 300 294 289 284 278 271 262 254 249 248 248 242 235 237 240 238 233 229 226 223 223 221 223 227 227 228 225 221
190 157 140 134 132 144 157 163 164 159 163 161 141 121 113 111 107 95 66 49 49 47 38 38 35 27 22 321 16 44 328 343 328 324 327 317 330 347 356 356 359 352 353 356 353 347 343 342 341 340 338 335 333 330 324 318 311 304 298 292 287 282 277 270 260 251 249 252 246 238 239 240 238 234 230 228 223 221 223 223 225 226 226 225 221
157 160 152 143 137 137 145 152 150 143 145 139 122 114 110 103 88 76 67 62 61 54 46 47 44 44 50 43 11 28 282 313 331 323 321 326 327 351 357 354 354 352 356 358 354 350 344 340 338 336 335 335 335 334 330 325 319 313 307 300 294 288 281 277 270 259 252 253 248 242 241 239 237 236 233 231 226 222 223 225 224 224 225 225 222
153 159 157 147 137 134 138 143 140 135 135 131 124 117 106 96 77 63 63 66 58 46 45 48 48 49 57 71 74 23 325 326 341 308 320 330 326 343 346 346 347 350 356 355 352 351 349 346 342 339 339 340 341 339 336 332 328 323 317 312 306 297 289 284 278 269 259 255 250 246 245 240 238 240 237 234 231 227 222 223 226 225 225 224 222
154 147 142 139 137 137 138 140 139 133 135 135 124 110 95 85 69 61 64 59 46 54 56 48 44 45 46 55 50 36 24 11 24 311 319 326 309 325 337 342 346 352 357 356 355 353 353 354 350 349 349 348 348 346 345 343 341 338 332 326 320 309 300 295 290 281 270 263 257 252 248 242 239 239 238 235 233 229 223 221 226 225 223 222 221
149 141 138 140 144 146 145 147 146 136 138 133 112 101 95 83 73 68 65 59 57 66 66 55 47 40 28 23 18 17 24 29 24 4 329 299 313 324 333 337 344 356 356 356 358 357 357 357 357 359 358 356 356 354 353 353 352 350 346 340 334 324 314 307 300 293 284 274 266 261 256 250 244 237 235 236 232 228 224 221 225 225 222 221 220
145 143 144 148 154 156 157 158 150 136 130 119 106 102 95 85 76 67 65 67 66 66 64 59 53 46 35 27 22 13 11 17 14 8 350 292 312 324 329 334 341 347 349 351 353 356 358 357 360 2 359 355 355 355 354 354 353 351 349 346 342 336 327 318 310 302 295 285 275 272 268 261 255 244 235 234 231 227 224 226 228 226 222 219 219
147 148 150 156 161 165 172 166 141 132 124 109 102 97 85 81 77 71 70 69 66 64 63 62 59 54 50 43 39 31 18 13 8 3 348 292 300 311 326 336 335 333 342 347 345 348 354 354 356 354 351 349 348 349 351 352 353 351 348 344 342 340 336 329 321 312 306 296 283 278 277 271 266 257 244 234 230 228 226 229 230 228 224 219 217
150 150 150 156 170 175 181 150 131 135 122 109 103 98 91 89 86 79 74 69 67 67 67 67 64 59 56 51 50 48 36 20 3 357 350 325 315 315 328 334 326 320 331 338 338 339 345 347 348 344 341 339 339 342 345 348 350 348 344 341 339 338 337 336 333 325 320 312 297 285 283 279 273 267 256 241 232 230 228 229 229 227 225 221 217
149 148 143 143 157 161 148 157 151 141 125 116 109 105 102 99 93 86 80 75 73 72 73 71 67 63 59 55 52 50 45 31 11 2 353 338 331 327 327 330 322 316 327 334 336 339 344 344 344 344 338 333 334 338 343 348 349 346 342 340 338 335 334 335 337 333 328 324 313 297 290 286 277 271 266 255 242 235 230 228 227 225 225 223 220
145 139 130 122 106 111 141 156 145 131 125 121 116 113 110 104 96 91 86 82 79 78 78 75 68 63 58 54 48 43 41 35 23 14 2 350 345 337 324 325 317 314 328 335 335 340 345 344 349 352 342 338 339 341 346 351 350 346 344 343 341 338 334 331 331 330 327 325 322 310 300 294 286 278 272 265 254 241 231 228 227 226 226 223 221
141 130 118 111 103 108 121 126 127 126 125 122 118 113 109 103 97 93 90 88 88 85 81 78 70 63 56 53 49 42 37 32 28 25 17 6 357 343 327 324 315 312 327 331 333 341 343 342 351 353 340 342 345 344 348 352 346 341 341 343 343 342 338 334 332 331 326 321 319 317 311 304 297 289 281 274 264 252 240 232 228 228 227 224 221
132 121 113 114 114 115 117 117 119 120 119 115 111 108 105 101 96 94 94 94 95 90 84 81 75 67 58 53 50 45 38 33 33 36 33 23 8 356 345 333 320 318 326 325 333 341 339 341 348 349 345 346 347 346 346 347 340 334 335 338 339 339 338 337 338 337 333 324 316 311 309 310 306 297 288 280 273 261 248 239 235 233 230 224 222
124 119 119 122 123 123 119 117 117 115 111 106 104 103 101 99 98 99 100 100 98 92 86 80 72 65 57 49 45 42 36 31 32 34 34 31 23 14 7 355 337 329 328 327 333 332 337 346 347 344 349 350 349 349 347 342 337 332 333 336 336 334 333 333 335 335 334 330 324 315 305 305 305 300 293 285 279 267 251 243 240 238 234 226 223
128 128 129 128 128 128 123 119 116 110 107 105 107 108 104 101 99 100 100 99 96 92 85 76 68 59 52 45 39 36 30 26 27 27 25 23 22 22 19 12 357 338 329 330 327 320 335 350 348 342 347 349 349 350 347 342 339 335 334 336 337 335 332 330 329 329 328 328 327 324 315 308 302 299 296 289 283 274 260 249 242 241 240 235 228
137 137 136 133 132 131 126 121 117 114 113 114 115 112 105 101 99 99 100 98 95 92 84 73 63 54 46 40 36 35 30 27 26 25 24 21 20 20 19 21 17 3 339 324 316 323 336 343 344 343 344 345 345 346 344 342 341 338 337 338 339 339 335 332 329 326 326 326 324 323 321 315 306 299 296 291 284 276 268 259 249 242 241 241 236
143 141 139 139 136 132 127 122 120 120 119 117 115 108 104 104 103 102 103 100 96 91 80 67 57 46 42 40 40 39 36 34 34 33 30 28 27 24 19 21 24 16 356 335 313 322 332 335 337 339 339 339 340 340 339 339 339 338 338 339 340 340 339 337 335 332 331 329 326 322 319 313 308 302 297 294 288 279 271 264 256 246 240 240 241
145 143 142 141 138 134 129 126 124 122 119 115 112 110 109 107 104 104 104 101 96 87 74 61 52 45 45 47 46 45 42 41 40 39 38 36 32 30 27 24 26 24 9 351 323 317 326 331 333 333 334 336 337 337 336 335 335 335 336 337 339 339 339 341 341 341 340 337 332 326 319 311 304 300 297 295 292 285 277 269 261 252 243 239 241
143 143 142 140 139 137 133 129 126 121 117 114 113 115 113 107 103 103 103 101 96 86 72 60 53 51 53 53 51 48 46 45 43 41 41 40 37 35 33 28 24 24 16 359 341 323 326 331 331 328 332 334 333 333 333 332 332 333 333 335 337 337 338 340 341 342 343 342 339 333 325 314 302 296 293 291 289 284 279 275 267 257 248 242 239
142 143 142 139 140 142 138 131 126 119 115 113 113 114 111 106 103 101 101 100 93 82 71 64 61 59 57 55 53 50 48 46 44 42 40 38 37 35 32 27 20 18 16 2 348 331 324 328 330 329 331 333 331 331 333 330 329 330 330 332 334 335 336 338 338 338 341 343 343 339 332 323 311 300 292 287 285 280 274 271 267 259 253 245 240
143 143 142 143 146 147 141 133 126 120 116 113 112 110 107 104 102 100 99 95 87 78 73 70 68 63 60 57 53 50 49 48 45 42 40 37 35 32 26 22 16 9 7 1 350 338 327 326 330 331 333 334 332 331 333 330 328 329 329 330 332 332 334 335 335 336 338 342 344 344 342 337 329 318 304 293 287 280 272 267 262 258 253 248 241
145 143 143 149 151 148 141 133 127 123 120 115 111 106 102 101 101 101 98 93 86 83 79 75 71 65 61 58 52 50 49 50 48 43 41 39 35 32 25 18 13 5 2 360 353 345 335 327 328 331 332 333 332 332 335 333 329 330 330 330 331 331 332 334 334 335 337 341 344 347 346 343 338 331 320 306 295 286 276 267 260 256 252 249 244
143 145 148 149 147 144 138 132 128 125 121 115 108 101 99 102 104 103 100 95 90 86 82 77 72 67 63 58 53 51 50 50 50 46 44 44 41 37 32 24 16 10 6 3 356 349 341 330 327 329 333 334 333 334 338 336 332 332 333 332 331 331 331 333 334 335 337 339 343 345 344 342 338 333 326 314 302 292 282 271 263 256 251 249 247
140 144 147 144 142 139 134 130 128 125 119 113 105 101 104 108 108 105 100 95 91 86 82 77 73 70 66 63 58 54 53 52 52 51 50 48 45 42 37 31 24 18 13 8 0 352 343 334 329 329 333 336 335 334 337 338 334 333 334 333 332 333 334 333 333 334 336 337 339 341 339 336 335 334 330 321 310 300 290 278 270 262 254 249 247
137 140 140 138 136 133 131 128 126 122 117 111 106 107 111 111 108 103 98 94 90 85 81 77 75 72 69 67 64 59 56 55 53 52 50 47 45 41 36 31 26 21 16 10 3 357 349 341 336 334 334 337 337 335 335 337 334 334 336 333 329 330 333 332 330 331 333 334 336 336 333 333 334 336 335 329 321 313 302 287 275 268 260 252 245
136 135 133 133 133 130 129 126 123 119 115 111 111 114 114 110 105 100 96 92 88 83 80 76 74 73 70 69 67 62 58 55 52 49 45 40 37 34 29 25 21 17 13 9 5 1 355 348 344 342 339 339 340 338 337 339 340 338 337 333 324 323 326 326 326 329 330 332 333 332 332 334 336 338 339 337 334 329 318 302 282 271 263 255 247
135 132 131 134 134 131 129 125 121 117 112 111 116 118 114 109 103 99 95 90 86 82 78 74 72 70 68 66 64 60 56 52 47 42 37 31 25 20 16 13 11 10 8 6 4 2 357 354 351 348 344 342 342 341 340 342 341 335 332 330 323 320 322 321 322 328 331 331 331 330 330 333 335 337 340 341 340 338 330 320 302 282 271 261 253
132 131 132 135 135 133 129 124 119 115 112 114 118 117 113 108 103 98 94 89 85 80 75 72 70 67 66 65 62 58 53 48 41 35 29 23 17 9 3 360 358 359 1 1 2 1 357 356 354 351 346 342 341 340 338 338 337 334 332 331 327 325 325 322 322 327 334 335 332 328 327 330 335 335 338 341 340 336 331 324 312 296 283 272 267
132 132 134 135 136 133 128 122 119 115 112 115 118 116 111 106 102 97 93 87 82 77 72 69 67 66 66 66 63 60 55 49 43 37 33 29 26 22 18 14 8 3 360 358 358 357 354 351 350 350 349 344 341 340 338 337 338 336 334 332 329 328 328 327 322 323 330 336 332 323 321 328 336 334 334 338 335 329 325 318 306 297 288 279 273
136 135 136 136 136 133 125 121 121 119 114 114 116 114 109 105 100 95 90 85 80 74 70 67 66 65 65 64 63 61 56 51 43 37 35 36 38 40 37 34 32 29 22 14 7 0 356 350 346 348 349 346 345 345 342 341 340 338 336 334 333 330 326 325 320 316 325 333 330 319 318 326 337 335 332 337 336 332 331 322 311 300 289 281 274
141 139 138 137 136 131 124 122 125 125 120 115 113 109 106 104 100 95 88 82 77 72 69 67 65 65 65 63 61 59 55 50 41 34 32 37 43 46 45 42 39 38 35 30 23 15 8 0 352 350 349 347 348 348 348 347 343 340 340 337 336 333 327 324 319 314 322 330 331 325 321 327 336 335 331 336 340 341 342 334 324 313 298 288 278
146 140 139 140 138 133 127 126 128 130 128 123 115 108 106 105 101 94 86 79 74 71 70 69 66 66 66 64 61 59 55 48 39 34 34 40 46 46 46 45 42 39 35 30 27 22 18 12 2 356 356 354 352 351 353 354 351 346 342 338 337 334 327 324 321 321 330 341 345 341 329 327 335 335 331 335 339 346 356 350 338 327 311 297 286
147 142 141 143 142 137 132 131 133 133 133 131 124 114 108 107 102 93 84 79 75 72 73 72 69 67 66 65 63 59 55 47 40 38 39 42 46 45 43 42 38 35 32 26 23 19 17 16 11 5 4 2 359 359 360 2 1 356 346 338 337 335 329 327 330 339 350 359 357 352 331 326 337 338 330 332 339 353 6 6 357 347 330 312 298
146 143 143 144 145 143 139 139 139 138 137 135 129 119 111 109 104 94 87 84 79 76 77 75 72 70 69 68 65 58 55 48 41 41 43 43 44 42 38 34 29 28 26 22 19 15 13 15 16 13 11 8 8 11 11 10 9 4 356 348 347 346 341 337 340 347 353 359 360 354 334 326 339 343 333 332 351 11 14 15 13 8 358 342 319
145 144 143 144 147 148 147 145 144 143 143 141 133 121 114 113 105 95 91 89 83 80 80 77 75 75 74 71 66 58 55 50 44 42 42 42 44 42 37 33 30 28 27 24 22 21 20 19 19 20 18 15 17 22 21 19 16 11 6 1 357 354 352 349 346 346 348 355 359 357 343 334 345 349 339 333 4 22 18 18 18 18 16 10 358
143 142 141 142 145 149 150 148 145 142 143 147 142 128 119 117 108 98 96 94 89 85 83 81 80 80 78 73 64 56 53 50 44 40 39 39 41 41 38 35 33 31 28 25 22 23 25 26 26 26 24 21 23 27 26 25 22 18 15 8 2 360 1 0 352 346 347 358 2 360 353 348 354 358 352 342 6 23 18 19 21 22 24 22 19
141 138 138 139 138 141 144 142 139 137 136 142 145 138 130 125 114 103 98 97 95 90 87 86 85 84 82 74 62 53 49 47 42 38 37 37 38 39 36 34 34 33 30 26 23 22 24 26 27 27 26 25 26 28 29 29 27 24 21 16 11 9 8 6 1 356 351 357 2 5 2 355 358 5 6 1 344 5 11 16 20 23 26 26 26